Location: *
(58.7167°N, 26.1833°E)
Time: 23:36:39
(UTC+00:00)

NOSS 3-4 (C) - Pass Details

Date: 25 August 2019
Orbit: 913 x 1299 km, 63.4° (Epoch: 21 September)

Event Time Altitude Azimuth Distance (km) Brightness Sun altitude
Rises 22:57:10 0° 305° (NW) 3,766 6.9 -20.2°
Reaches altitude 10° 22:59:44 10° 302° (WNW) 2,862 6.2 -20.2°
Maximum altitude 23:06:19 55° 227° (SW) 1,322 3.9 -20.0°
Enters shadow 23:10:35 25° 160° (SSE) 2,152 4.8 -19.9°
